Showing default

KUIPER-00448, 68871

Orbit data source: Space-Track

KUIPER-00448, 68871 is an American payload satellite in LEO that was launched on Tue, 28 Apr 2026 UTC launched from the Air Force Eastern Test Range (AFETR). Payload-class satellites include a variety of spacecraft equipped with specific instruments for various scientific and technological missions. These include communications satellites like Starlink; space stations such as the ISS; scientific satellites like the Hubble; Earth observation satellites from companies like Planet Labs, Umbra, and HawkEye 360; GPS; miniature CubeSats for education and research; and military/defense satellites.

Loading next visibility...
Identifier
68871, 2026-095H
Orbit
LEO
Country
Flag of USUS
Related business
None
Manufacturer
Unknown
Mission
Operational spacecraft
Bus & Motor
Unknown
Mass
Unknown
Launch date (UTC)
2026-04-28 (4 days ago)
Launch vehicle
Unknown
Launch site
Air Force Eastern Test Range (AFETR)
Object type
Payload
Rocket body
Debris
Shape & HBR
Unknown
Radar Cross Section
RCS unknown

Expand to show TLE details & history
Last TLE update: 7 hours ago

TLE from 7 hours ago
0 KUIPER-00448
1 68871U 26095H   26122.16670139  .00001727  00000-0  56279-4 0  9998
2 68871  51.8821 104.8893 0003561 106.6013 103.4681 15.37763810  1377
Epoch: 2026-05-02T04:00Z
TLE epoch observation values (Epoch: 2026-05-02T04:00:03.000Z)
Latitude
-23.43514°
Longitude
24.55652°
Altitude
459.87 km
Speed
7.637 km/s
True Right ascension
20h 18m 37s
True Declination
-23° 18' 16"
Sunlit
Object was in daylight at epoch
Visualization orbit readout
Latitude
Unknown
Longitude
Unknown
Altitude
Unknown
Speed
Unknown
Apparent Right ascension
Unknown
Apparent Declination
Unknown
Sunlit
N/A
Visualization observer readout
Local Sidereal Time
18:37:18
Azimuth
Unknown
Elevation
Unknown
Doppler factor
Unknown
Orbital elements
Apogee altitude
455.622 km
Perigee altitude
450.756 km
Semi-major axis
6,831.326 km
Eccentricity
0.00036
Inclination
51.8821°
RAAN
104.8893°
Arg. of periapsis
106.6013°
True anomaly
103.50778°
Mean anomaly
103.4681°
Eccentric anomaly
103.48794°
Mean motion
3.84402 °/min
Orbital period
93.65 mins
BSTAR
0.000056279
Loading maneuver chart data...
Computing Atmospheric mass density...
Loading historical data...
Loading historical data...
Loading historical data...
Loading historical data...
Loading historical data...
Loading historical data...
Loading historical data...

Documentation

Showing up to 5 results
|